GFSNW_prec_snow_186.txt.gz
Snowfall_Accumulation
0.0 0.0 0.0 0.0 0.0 0.0 0.0 0.0 17.6 0.0 0.0 12.2 8.2 4.5 0.1 0.0 0.2 0.0 1.6 2.4 4.2 6.6 4.8 5.2 6.0 3.0 3.4 0.0 0.0 0.0 0.0 7.3 6.5 1.5 0.0 0.0 0.0 0.1 0.1 8.2 5.3 5.7 13.2 17.3
0.0 0.0 0.0 0.0 0.0 0.0 0.0 5.0 3.9 0.0 0.0 11.3 6.1 1.0 0.1 0.0 0.0 0.0 1.4 2.0 4.4 6.1 7.8 9.3 11.0 3.5 0.0 0.0 0.0 0.0 0.0 5.9 2.1 3.1 0.0 0.0 0.4 0.0 0.0 0.9 3.4 10.9 16.7 15.7
0.0 0.0 0.0 0.0 0.0 0.0 0.0 9.7 28.7 0.0 0.0 2.3 1.7 1.9 0.7 0.2 0.0 0.0 0.1 2.9 5.7 6.2 7.5 6.9 9.2 3.4 0.0 0.0 0.0 0.0 0.0 1.7 3.3 6.6 7.9 4.4 3.0 1.2 0.0 4.2 14.1 10.3 12.7 9.9
0.0 0.0 0.0 0.0 0.0 0.0 0.0 15.5 19.9 0.3 19.9 10.8 3.1 1.9 2.4 1.1 1.3 0.2 1.0 5.4 3.9 5.4 9.6 6.3 5.7 4.6 0.1 0.0 0.0 0.0 0.0 3.9 6.5 3.6 4.9 3.2 6.3 6.2 7.5 6.9 4.3 9.3 9.4 4.7
0.0 0.0 0.0 0.0 0.0 0.0 0.0 45.1 10.8 0.0 2.2 0.8 5.9 5.2 3.1 1.0 1.2 4.5 3.8 2.1 0.7 1.8 3.9 3.7 4.6 3.8 2.6 3.3 0.0 0.0 0.0 3.1 7.6 13.9 6.5 2.6 8.5 9.6 7.0 3.7 3.6 4.3 2.3 3.8
0.0 0.0 0.0 0.0 0.0 0.0 8.2 0.0 0.0 5.0 5.7 3.1 8.9 8.1 3.8 2.1 2.4 0.5 0.5 1.1 2.9 1.8 1.1 0.0 0.0 0.0 0.5 0.0 1.2 0.7 1.1 3.2 3.9 8.2 4.3 2.5 5.1 7.9 4.6 2.4 1.7 1.2 1.3 1.8
0.0 0.0 0.0 0.0 0.0 0.0 0.0 0.0 0.0 15.0 14.0 4.3 1.5 1.6 0.4 1.6 0.9 2.5 0.0 0.0 3.1 0.0 0.0 0.0 0.0 0.0 0.0 0.0 0.0 0.0 0.2 2.6 5.2 6.9 4.5 10.9 8.3 3.5 2.2 1.2 1.4 0.9 0.4 1.4
0.0 0.0 0.0 0.0 0.0 0.0 0.0 0.0 0.0 9.6 11.7 2.4 1.1 0.7 0.5 0.2 0.0 2.0 0.3 0.0 0.0 0.0 0.0 7.8 4.4 0.6 0.3 0.0 0.0 0.0 0.1 1.8 8.7 7.4 4.1 3.5 1.9 0.5 0.7 1.3 1.6 0.9 0.9 1.0
0.0 0.0 0.0 0.0 0.0 0.0 0.0 0.0 0.0 4.8 13.6 2.6 0.0 0.6 0.6 2.7 3.0 1.9 0.0 0.0 0.0 0.0 7.7 9.4 6.8 2.4 1.6 1.1 0.7 0.0 0.5 1.0 7.6 7.9 7.6 4.6 0.6 0.0 0.0 0.0 1.6 0.5 0.4 0.3
0.0 0.0 0.0 0.0 0.0 0.0 0.0 0.0 0.0 0.1 18.3 0.0 0.0 1.3 2.1 1.0 1.9 5.2 0.7 0.7 0.0 0.0 9.1 10.0 4.7 2.6 1.5 3.0 3.1 1.2 3.7 6.0 12.9 8.6 10.1 0.6 0.0 0.2 0.1 1.7 3.1 0.8 0.1 0.0
0.0 0.0 0.0 0.0 0.0 0.0 0.0 0.0 0.0 0.0 14.6 0.1 0.0 0.0 1.0 1.8 2.8 7.9 1.8 7.2 6.8 8.0 12.6 8.7 6.2 3.4 2.1 2.4 0.3 1.9 2.1 7.1 5.8 8.7 13.2 7.2 0.0 0.1 0.4 1.3 0.9 0.6 0.5 0.1
0.0 0.0 0.0 0.0 0.0 0.0 0.0 0.0 0.0 0.0 3.4 0.8 0.0 0.0 0.0 0.0 0.0 2.6 3.8 3.4 1.3 5.3 9.4 8.4 7.1 4.7 4.1 2.1 5.5 0.8 6.1 4.9 6.6 4.7 4.7 1.7 0.8 0.8 0.7 0.1 0.5 0.7 0.4 0.9
0.0 0.0 0.0 0.0 0.0 0.0 0.0 0.0 0.0 0.0 10.7 0.7 0.0 0.0 0.0 0.0 0.0 0.0 3.7 0.0 2.3 4.4 0.3 7.6 6.4 6.6 0.8 4.3 2.7 4.1 3.7 0.0 5.3 3.0 4.9 1.7 0.9 0.7 0.4 0.4 0.7 1.0 1.1 0.7
0.0 0.0 0.0 0.0 0.0 0.0 0.0 0.0 0.0 0.0 3.0 14.1 2.1 0.0 0.0 0.0 0.0 0.0 0.0 0.0 0.0 0.0 0.0 4.4 4.2 4.8 0.0 4.1 5.8 4.3 4.7 5.1 8.4 9.5 5.2 2.0 1.3 1.5 1.3 1.3 0.9 0.3 1.5 1.3
0.0 0.0 0.0 0.0 0.0 0.0 0.0 0.0 0.0 0.0 2.5 11.6 4.0 0.0 0.0 0.0 0.0 0.0 0.0 0.0 0.0 0.5 4.8 6.5 4.3 0.5 1.1 0.1 2.5 2.5 1.3 4.2 10.9 14.9 9.4 5.7 5.0 2.8 1.8 1.8 2.1 1.2 0.5 0.0
0.0 0.0 0.0 0.0 0.0 0.0 0.0 37.9 0.0 0.0 0.0 13.1 7.8 0.0 0.0 0.0 0.0 0.0 0.0 0.0 0.0 0.4 3.6 4.2 0.1 0.0 1.7 8.5 7.0 2.4 1.3 1.4 2.8 5.5 7.9 7.6 4.8 3.5 2.3 1.5 0.7 0.0 0.0 0.0
0.0 0.0 0.0 0.0 0.0 0.0 1.8 10.9 0.0 0.0 0.0 16.0 12.3 2.1 0.0 0.0 0.0 2.2 0.0 1.9 0.9 0.3 2.0 2.6 1.1 0.4 1.7 9.4 8.0 3.6 2.6 2.6 3.1 3.2 3.6 2.7 1.7 1.1 0.5 0.0 0.0 0.0 0.0 0.0
0.0 0.0 0.0 0.0 0.0 0.0 1.1 0.0 0.0 0.0 0.0 3.5 10.7 7.7 4.0 0.0 2.3 7.3 3.2 4.1 2.5 5.5 3.5 3.4 1.0 1.6 1.5 7.6 0.4 0.0 0.4 0.5 1.2 1.3 0.4 0.9 0.5 0.0 0.0 0.0 0.0 0.0 0.0 0.3
0.0 0.0 0.0 0.0 0.0 3.2 0.0 0.0 0.0 0.0 2.6 12.1 4.9 7.0 14.1 0.0 0.3 3.2 7.3 4.5 12.8 0.0 5.6 1.8 3.2 6.1 9.5 4.4 0.6 0.1 0.0 0.0 0.0 0.0 0.1 0.0 0.2 0.0 0.0 0.0 0.0 0.4 2.7 1.8
0.0 0.0 7.6 49.2 3.0 0.0 0.0 0.0 12.9 18.6 7.2 4.2 4.5 1.2 5.8 0.9 3.9 8.8 8.7 7.6 10.3 8.3 3.0 0.4 5.7 6.7 4.5 1.3 0.3 0.0 0.0 0.0 0.0 0.0 0.0 0.0 0.3 0.4 0.3 1.2 1.9 2.7 2.3 1.0
0.0 18.8 25.8 0.0 0.0 0.0 8.2 30.7 20.4 12.1 8.5 1.3 0.7 0.1 8.2 3.5 9.3 6.3 2.3 9.8 7.1 8.2 4.4 6.4 7.0 5.3 5.7 1.7 0.9 0.2 0.0 0.0 0.0 0.0 0.0 0.1 0.4 1.3 3.0 2.0 0.1 0.0 0.8 1.0
0.0 0.0 0.0 0.0 12.6 17.4 23.6 18.3 10.6 4.3 4.0 1.4 1.5 1.8 1.6 9.5 1.8 11.3 11.6 11.5 11.2 9.0 6.6 8.2 7.2 5.5 0.7 0.1 0.2 0.2 0.1 0.0 0.1 0.3 0.4 0.4 1.3 0.6 1.5 1.3 1.4 1.5 1.4 2.0
0.0 10.6 16.0 21.6 26.1 28.0 18.2 12.2 7.9 5.7 5.0 3.0 2.7 4.4 3.5 4.0 5.6 16.0 8.5 9.3 13.7 5.0 15.2 9.8 6.5 3.4 1.3 1.4 2.8 0.2 0.2 0.2 0.2 0.4 0.3 0.4 0.7 0.7 0.6 1.0 1.4 1.6 2.8 3.9
11.5 23.3 23.4 24.4 20.8 13.3 12.5 6.7 5.8 6.1 4.5 1.7 3.6 2.4 3.6 2.9 9.8 14.9 14.6 14.8 12.0 15.7 9.0 8.6 9.3 6.5 6.1 4.0 3.1 2.1 3.4 2.2 2.2 2.3 2.4 2.6 3.9 3.7 5.4 6.2 7.2 6.7 8.7 11.2
15.7 14.5 15.4 13.1 12.5 10.6 8.9 6.5 4.3 2.6 2.8 2.2 3.5 5.0 5.5 10.7 12.9 10.0 8.7 8.8 8.2 6.4 8.7 11.0 7.0 6.9 5.5 4.5 4.9 5.2 5.6 5.4 5.9 6.1 6.1 7.1 7.3 6.6 8.4 9.4 9.3 7.8 7.8 7.9
7.5 6.8 9.6 8.4 6.7 8.3 6.6 6.5 7.4 4.1 5.5 4.7 9.5 13.6 12.8 12.4 7.2 4.6 5.2 4.5 6.8 9.8 9.0 4.7 4.5 5.0 5.5 6.0 6.0 6.8 7.0 6.5 6.2 6.3 5.8 6.0 6.2 5.6 6.3 6.7 7.1 6.6 5.4 5.4
5.2 9.1 8.8 8.5 7.3 8.7 8.6 7.2 5.6 3.8 4.6 11.3 11.4 7.7 7.1 6.3 5.6 6.4 6.8 9.8 11.3 7.1 6.3 6.8 6.3 6.6 7.5 7.3 7.8 8.1 7.7 6.7 6.3 6.0 5.8 6.0 5.9 4.4 2.9 3.9 5.6 4.4 4.2 3.7

GFSNW_prec_snow_192.txt.gz
Snowfall_Accumulation
0.0 0.0 0.0 0.0 0.0 0.0 0.0 0.0 17.6 0.0 0.0 12.2 8.2 5.1 0.1 0.0 0.2 0.0 1.6 2.4 4.5 6.9 5.0 5.3 6.0 3.0 3.4 0.0 0.0 0.0 0.0 7.3 6.7 1.5 0.0 0.0 0.0 0.1 0.1 8.2 5.3 5.7 13.3 17.6
0.0 0.0 0.0 0.0 0.0 0.0 0.0 5.0 3.9 0.0 0.0 11.9 6.6 1.0 0.1 0.0 0.0 0.0 2.4 2.6 4.7 6.3 7.9 9.4 11.0 3.5 0.0 0.0 0.0 0.1 0.0 6.5 3.4 3.4 0.0 0.0 0.4 0.0 0.0 0.9 3.5 11.9 18.1 16.3
0.0 0.0 0.0 0.0 0.0 0.0 0.0 9.7 28.9 0.0 0.0 2.3 2.4 2.9 1.4 0.8 0.0 0.0 0.3 3.0 5.7 6.2 7.5 6.9 9.2 3.4 0.0 0.0 0.0 0.0 0.0 2.4 4.4 7.7 8.2 4.5 3.1 1.2 0.0 4.3 14.8 11.2 13.4 9.9
0.0 0.0 0.0 0.0 0.0 0.0 0.0 15.5 19.9 0.3 20.6 11.4 3.7 2.2 2.6 1.1 1.3 0.2 1.0 5.4 3.9 5.4 9.6 6.3 5.7 4.6 0.1 0.0 0.0 0.0 0.2 4.1 6.6 3.7 4.9 3.2 6.3 6.2 7.5 6.9 4.3 10.5 10.1 4.8
0.0 0.0 0.0 0.0 0.0 0.0 0.0 45.1 10.8 0.0 2.2 0.8 5.9 5.2 3.2 1.0 1.2 4.5 3.8 2.1 0.7 1.8 4.0 3.7 4.6 3.8 2.6 3.3 0.0 0.0 0.0 3.1 7.8 14.1 6.5 2.6 9.1 9.6 7.0 3.7 3.6 4.3 2.3 4.0
0.0 0.0 0.0 0.0 0.0 0.0 8.2 0.0 0.0 5.0 5.7 3.1 8.9 8.1 3.8 2.1 2.4 0.5 0.5 1.1 2.9 1.8 1.1 0.0 0.0 0.0 0.5 0.0 1.2 0.7 1.1 3.3 4.4 9.1 4.3 2.5 6.3 7.9 4.7 2.4 1.7 1.4 1.3 1.8
0.0 0.0 0.0 0.0 0.0 0.0 0.0 0.0 0.0 15.0 14.0 4.3 1.5 1.6 0.4 1.6 0.9 2.5 0.0 0.0 3.1 0.0 0.0 0.0 0.0 0.0 0.0 0.0 0.0 0.0 0.2 2.6 6.2 8.3 4.6 12.5 8.5 3.5 2.4 1.4 1.4 0.9 0.4 1.4
0.0 0.0 0.0 0.0 0.0 0.0 0.0 0.0 0.0 9.6 11.7 2.4 1.1 0.7 0.5 0.2 0.0 2.0 0.3 0.0 0.0 0.0 0.0 7.8 4.4 0.6 0.3 0.0 0.0 0.0 0.2 3.0 11.1 9.1 4.1 3.5 1.9 0.6 0.9 1.3 1.6 0.9 0.9 1.0
0.0 0.0 0.0 0.0 0.0 0.0 0.0 0.0 0.0 4.8 13.6 2.6 0.0 0.6 0.6 2.7 3.0 1.9 0.0 0.0 0.0 0.0 7.7 9.4 6.8 2.4 1.6 1.1 0.9 0.4 1.0 1.0 11.4 10.2 9.5 5.2 0.7 0.2 0.0 0.0 1.6 0.5 0.4 0.3
0.0 0.0 0.0 0.0 0.0 0.0 0.0 0.0 0.0 0.1 18.3 0.0 0.0 1.3 2.1 1.0 1.9 5.2 0.7 0.7 0.0 0.0 9.1 10.5 5.0 3.1 2.3 3.9 3.1 1.2 3.7 6.0 13.4 10.8 13.6 1.6 0.2 0.5 0.8 2.8 3.1 0.8 0.1 0.0
0.0 0.0 0.0 0.0 0.0 0.0 0.0 0.0 0.0 0.0 14.6 0.1 0.0 0.0 1.0 1.8 2.8 7.9 1.8 7.2 6.8 8.0 12.6 8.7 6.6 3.4 2.1 2.5 0.3 1.9 2.1 7.5 6.1 8.7 13.3 7.6 1.0 1.5 2.2 3.5 2.5 0.6 0.5 0.1
0.0 0.0 0.0 0.0 0.0 0.0 0.0 0.0 0.0 0.0 3.4 0.8 0.0 0.0 0.0 0.0 0.0 2.6 3.8 3.4 1.3 5.3 9.4 8.4 7.1 4.7 4.1 2.1 5.5 0.8 6.1 4.9 7.0 5.1 4.7 3.0 2.6 3.0 1.8 0.1 0.5 0.7 0.4 0.9
0.0 0.0 0.0 0.0 0.0 0.0 0.0 0.0 0.0 0.0 10.7 0.7 0.0 0.0 0.0 0.0 0.0 0.0 3.7 0.0 2.3 4.4 0.3 7.6 6.6 6.7 0.8 4.3 2.7 4.1 3.7 0.0 5.4 4.0 5.6 4.7 3.3 0.7 0.4 0.4 0.7 1.0 1.1 0.7
0.0 0.0 0.0 0.0 0.0 0.0 0.0 0.0 0.0 0.0 3.0 14.1 2.1 0.0 0.0 0.0 0.0 0.0 0.0 0.0 0.0 0.0 0.0 4.9 4.5 5.1 0.0 4.1 5.8 4.3 4.7 5.6 9.5 11.5 7.5 4.0 1.3 1.5 1.3 1.3 0.9 0.3 1.5 1.3
0.0 0.0 0.0 0.0 0.0 0.0 0.0 0.0 0.0 0.0 2.5 11.6 4.0 0.0 0.0 0.0 0.0 0.0 0.0 0.0 0.0 0.5 4.9 7.0 4.6 0.5 1.2 0.1 2.5 2.5 1.3 5.2 13.1 15.4 9.7 6.7 5.0 2.8 1.8 1.8 2.1 1.2 0.5 0.0
0.0 0.0 0.0 0.0 0.0 0.0 0.0 37.9 0.0 0.0 0.0 13.1 8.1 0.0 0.0 0.0 0.0 0.0 0.0 0.0 0.0 0.4 4.0 4.3 0.1 0.0 1.7 9.0 7.1 2.5 1.4 1.4 3.1 7.3 8.7 7.8 4.8 3.5 2.3 1.5 0.7 0.0 0.0 0.0
0.0 0.0 0.0 0.0 0.0 0.0 1.8 10.9 0.0 0.0 0.0 16.2 12.3 2.1 0.0 0.0 0.0 2.2 0.0 1.9 0.9 0.3 2.2 2.7 1.1 0.4 2.3 10.0 8.0 3.8 2.8 3.1 4.0 4.1 4.4 2.9 1.7 1.1 0.5 0.0 0.0 0.0 0.0 0.0
0.0 0.0 0.0 0.0 0.0 0.0 1.1 0.0 0.0 0.0 0.0 3.5 10.8 7.7 4.0 0.0 2.3 7.3 3.2 4.1 2.7 5.8 3.5 3.4 1.0 1.6 1.5 7.8 0.4 0.0 0.4 0.5 1.2 1.3 0.4 0.9 0.5 0.0 0.0 0.0 0.0 0.0 0.0 0.3
0.0 0.0 0.0 0.0 0.0 3.2 0.0 0.0 0.0 0.0 2.6 12.1 4.9 7.0 14.1 0.0 0.3 3.3 7.8 5.1 13.7 0.0 5.8 1.9 3.3 6.2 9.7 4.4 0.6 0.1 0.0 0.1 0.2 0.0 0.1 0.0 0.2 0.0 0.0 0.0 0.0 0.4 2.7 1.8
0.0 0.0 7.6 49.2 3.0 0.0 0.0 0.0 12.9 18.9 7.4 4.2 4.7 1.2 5.8 0.9 4.5 9.7 9.5 8.4 11.0 9.5 3.2 0.4 5.9 6.7 4.5 1.3 0.3 0.9 0.5 0.4 0.0 0.0 0.0 0.0 0.3 0.4 0.3 1.3 1.9 2.7 2.3 1.0
0.0 18.8 25.8 0.0 0.0 0.0 8.2 30.7 21.0 12.3 9.0 1.5 0.9 0.4 9.1 4.2 10.3 7.2 2.8 10.3 8.6 11.2 8.1 7.7 8.4 9.4 11.6 2.5 1.2 0.2 0.0 0.0 0.0 0.0 0.0 0.1 0.4 1.3 3.0 2.0 0.1 0.0 0.8 1.0
0.0 0.0 0.0 0.0 13.0 17.7 24.1 18.4 10.6 4.3 4.0 1.4 1.5 1.9 2.9 10.3 2.5 11.9 11.9 12.0 11.4 9.0 7.2 10.3 9.5 6.8 0.8 0.1 0.2 0.2 0.1 0.0 0.1 0.3 0.4 0.4 1.3 0.6 1.5 1.3 1.4 1.5 1.5 2.0
0.0 10.6 16.2 21.6 26.1 28.2 18.3 12.2 7.9 5.9 5.1 3.3 4.0 5.3 4.4 6.2 7.0 16.5 9.2 9.6 13.7 5.0 15.2 10.0 7.0 3.8 1.4 1.4 2.8 0.2 0.2 0.2 0.2 0.4 0.3 0.4 0.7 0.7 0.6 1.0 1.4 1.6 2.8 3.9
11.5 23.5 23.5 24.4 20.8 13.3 12.5 6.8 5.8 6.1 4.7 2.5 4.1 2.8 3.9 2.9 10.1 15.2 14.8 14.8 12.0 15.7 9.0 10.3 9.6 6.6 6.1 4.0 3.1 2.1 3.4 2.2 2.2 2.3 2.4 2.6 3.9 3.7 5.4 6.2 7.2 6.7 8.7 11.2
15.7 14.9 15.5 13.1 12.5 10.6 8.9 6.5 4.5 2.6 2.9 2.4 3.6 5.0 5.9 11.2 13.3 10.1 8.7 8.8 8.2 6.6 9.2 11.0 7.1 6.9 5.5 4.5 5.0 5.2 5.6 5.4 5.9 6.1 6.1 7.1 7.3 6.6 8.4 9.4 9.3 7.8 7.9 7.9
7.6 6.9 9.6 8.4 6.7 8.3 6.6 6.5 7.4 4.1 5.5 4.7 9.6 14.0 13.1 12.4 7.2 4.6 5.2 4.5 7.0 10.3 9.1 4.7 4.6 5.0 5.5 6.1 6.2 6.9 7.0 6.5 6.2 6.3 5.8 6.0 6.2 5.6 6.3 6.7 7.1 6.6 5.4 5.4
5.3 9.1 8.8 8.5 7.3 8.7 8.6 7.2 5.6 3.8 4.6 11.3 11.4 7.8 7.2 6.7 6.2 6.8 8.0 11.7 13.0 8.3 7.2 7.3 6.3 6.6 7.6 7.7 7.9 8.1 7.7 6.7 6.3 6.0 5.8 6.0 5.9 4.4 2.9 3.9 5.6 4.4 4.2 3.7

GFSNW_prec_snow_195.txt.gz
Snowfall_Accumulation
0.0 0.0 0.0 0.0 0.0 0.0 0.0 0.0 17.6 0.0 0.0 12.2 8.8 5.2 0.1 0.0 0.2 0.0 1.6 2.4 4.8 7.2 5.1 5.3 6.0 3.0 3.4 0.0 0.0 0.0 0.0 7.7 6.7 1.5 0.0 0.0 0.0 0.1 0.1 8.6 5.8 6.1 14.1 18.3
0.0 0.0 0.0 0.0 0.0 0.0 0.0 5.0 3.9 0.0 0.0 12.5 6.8 1.0 0.1 0.0 0.0 0.0 2.6 2.9 4.7 6.3 8.0 9.4 11.0 3.5 0.0 0.0 0.0 0.1 0.0 6.6 3.4 3.4 0.0 0.0 0.4 0.0 0.0 0.9 3.5 11.9 18.9 16.3
0.0 0.0 0.0 0.0 0.0 0.0 0.0 9.7 30.8 0.0 0.0 2.3 2.5 3.3 2.0 1.2 0.0 0.0 0.5 3.1 5.7 6.2 7.5 6.9 9.2 3.4 0.0 0.0 0.0 0.0 0.0 2.4 4.5 7.8 8.2 4.5 3.1 1.2 0.0 4.3 14.9 11.2 13.4 9.9
0.0 0.0 0.0 0.0 0.0 0.0 0.0 15.5 20.9 0.3 21.7 11.9 4.0 2.2 2.9 1.2 1.5 0.2 1.0 5.4 3.9 5.4 9.6 6.3 5.7 4.6 0.1 0.0 0.0 0.0 0.2 4.1 6.6 3.7 4.9 3.2 6.3 6.2 7.5 6.9 4.3 10.5 10.1 4.8
0.0 0.0 0.0 0.0 0.0 0.0 0.0 45.4 11.0 0.3 2.6 1.2 6.6 5.9 3.5 1.0 1.3 4.5 3.8 2.1 0.7 1.8 4.0 3.7 4.6 3.8 2.6 3.3 0.0 0.0 0.0 3.1 7.8 14.1 6.5 2.6 9.1 9.6 7.0 3.7 3.6 4.3 2.3 4.0
0.0 0.0 0.0 0.0 0.0 0.0 8.2 0.0 0.0 5.0 5.8 3.1 9.0 8.3 3.9 2.1 2.4 0.5 0.5 1.1 2.9 1.8 1.1 0.0 0.0 0.0 0.5 0.0 1.2 0.7 1.1 3.3 4.4 9.3 4.3 2.5 6.3 7.9 4.7 2.4 1.7 1.4 1.3 1.8
0.0 0.0 0.0 0.0 0.0 0.0 0.0 0.0 0.0 15.0 14.0 4.3 1.5 1.6 0.4 1.6 0.9 2.5 0.0 0.0 3.1 0.0 0.0 0.0 0.0 0.0 0.0 0.0 0.0 0.0 0.2 2.6 6.4 8.5 4.7 12.6 8.5 3.5 2.9 1.6 1.5 0.9 0.4 1.4
0.0 0.0 0.0 0.0 0.0 0.0 0.0 0.0 0.0 9.6 11.7 2.4 1.1 0.7 0.5 0.2 0.0 2.0 0.3 0.0 0.0 0.0 0.0 7.8 4.4 0.6 0.3 0.0 0.0 0.0 0.2 3.0 11.6 9.4 4.3 3.5 1.9 1.1 2.0 2.3 2.1 1.0 1.2 1.3
0.0 0.0 0.0 0.0 0.0 0.0 0.0 0.0 0.0 4.8 13.6 2.6 0.0 0.6 0.6 2.7 3.0 1.9 0.0 0.0 0.0 0.0 7.7 9.4 6.8 2.4 1.6 1.1 0.9 0.4 1.0 1.0 11.4 10.5 10.1 5.3 0.7 0.2 0.0 0.0 2.0 1.2 2.7 1.2
0.0 0.0 0.0 0.0 0.0 0.0 0.0 0.0 0.0 0.1 18.3 0.0 0.0 1.3 2.1 1.0 1.9 5.2 0.7 0.7 0.0 0.0 9.1 10.5 5.0 3.1 2.3 3.9 3.1 1.2 3.7 6.0 13.4 10.8 13.8 1.6 0.2 0.7 0.8 4.6 5.7 4.3 2.0 1.2
0.0 0.0 0.0 0.0 0.0 0.0 0.0 0.0 0.0 0.0 14.6 0.1 0.0 0.0 1.0 1.8 2.8 7.9 1.8 7.2 6.8 8.0 12.7 8.7 6.6 3.4 2.1 2.5 0.3 1.9 2.1 7.5 6.1 8.7 13.3 7.6 1.0 2.1 3.9 5.4 5.1 2.1 0.6 0.1
0.0 0.0 0.0 0.0 0.0 0.0 0.0 0.0 0.0 0.0 3.4 0.8 0.0 0.0 0.0 0.0 0.0 2.6 3.8 3.4 1.3 5.3 9.4 8.4 7.1 4.7 4.1 2.1 5.5 0.8 6.1 4.9 7.0 5.1 4.7 3.0 2.6 4.8 3.2 2.4 2.7 1.0 0.4 0.9
0.0 0.0 0.0 0.0 0.0 0.0 0.0 0.0 0.0 0.0 10.7 0.7 0.0 0.0 0.0 0.0 0.0 0.0 3.7 0.0 2.3 4.4 0.3 7.6 6.6 6.7 0.8 4.3 2.7 4.1 3.7 0.0 5.4 4.0 5.6 4.8 3.5 0.7 1.1 1.7 1.3 1.0 1.1 0.7
0.0 0.0 0.0 0.0 0.0 0.0 0.0 0.0 0.0 0.0 3.0 14.1 2.1 0.0 0.0 0.0 0.0 0.0 0.0 0.0 0.0 0.0 0.0 4.9 4.6 5.2 0.0 4.1 5.8 4.3 4.7 5.6 9.5 11.5 7.5 4.3 1.3 1.5 1.3 1.3 0.9 0.3 1.5 1.3
0.0 0.0 0.0 0.0 0.0 0.0 0.0 0.0 0.0 0.0 2.5 11.6 4.0 0.0 0.0 0.0 0.0 0.0 0.0 0.0 0.0 0.5 5.0 7.3 4.7 0.5 1.2 0.1 2.5 2.5 1.3 5.2 13.1 16.1 10.3 7.9 5.0 2.8 1.8 1.8 2.1 1.2 0.5 0.0
0.0 0.0 0.0 0.0 0.0 0.0 0.0 37.9 0.0 0.0 0.0 13.1 8.1 0.0 0.0 0.0 0.0 0.0 0.0 0.0 0.0 0.4 4.1 4.5 0.1 0.0 1.8 9.1 7.1 2.5 1.4 1.4 3.3 7.8 8.7 8.5 5.3 3.5 2.3 1.5 0.7 0.0 0.0 0.0
0.0 0.0 0.0 0.0 0.0 0.0 1.8 10.9 0.0 0.0 0.0 16.2 12.3 2.1 0.0 0.0 0.0 2.2 0.0 1.9 0.9 0.3 2.6 2.9 1.1 0.4 2.4 10.1 8.0 3.8 2.8 3.1 4.0 4.6 5.9 3.8 1.7 1.1 0.5 0.0 0.0 0.0 0.0 0.0
0.0 0.0 0.0 0.0 0.0 0.0 1.1 0.0 0.0 0.0 0.0 3.5 10.8 7.7 4.0 0.0 2.3 7.3 3.2 4.1 2.9 6.1 3.5 3.5 1.0 1.6 1.5 7.9 0.4 0.0 0.4 0.7 1.4 1.3 0.4 1.1 0.5 0.0 0.0 0.0 0.0 0.0 0.0 0.3
0.0 0.0 0.0 0.0 0.0 3.2 0.0 0.0 0.0 0.0 2.6 12.1 4.9 7.1 14.1 0.0 0.4 3.5 8.1 5.9 14.3 0.0 6.1 1.9 3.3 6.2 9.8 4.4 0.6 0.2 0.4 0.7 0.4 0.0 0.1 0.0 0.2 0.0 0.0 0.0 0.0 0.4 2.7 1.8
0.0 0.0 7.6 49.2 3.0 0.0 0.0 0.0 12.9 19.0 7.4 4.2 4.7 1.2 6.0 0.9 4.8 9.9 9.7 8.7 11.3 10.0 3.5 0.4 6.2 6.7 4.5 1.3 0.3 0.9 1.1 0.6 0.0 0.0 0.0 0.0 0.3 0.4 0.3 1.3 1.9 2.7 2.5 1.0
0.0 18.8 25.8 0.0 0.0 0.0 8.2 30.7 21.0 12.3 9.0 1.5 0.9 0.4 9.5 4.5 10.8 7.4 2.8 10.6 8.8 11.6 9.1 8.5 9.2 10.2 12.6 2.9 1.2 0.2 0.0 0.0 0.0 0.0 0.1 0.2 0.4 1.4 3.0 2.0 0.1 0.0 0.8 1.0
0.0 0.0 0.0 0.0 13.2 17.7 24.2 18.4 10.7 4.3 4.0 1.4 1.5 1.9 2.9 10.7 2.8 12.1 11.9 12.2 11.6 9.1 7.2 10.7 10.6 7.6 1.0 0.1 0.2 0.2 0.1 0.0 0.1 0.3 0.4 0.4 1.3 0.6 1.5 1.3 1.4 1.5 1.5 2.0
0.0 10.6 16.2 21.6 26.1 28.3 18.3 12.2 7.9 5.9 5.1 3.3 4.1 5.5 4.4 6.6 7.5 16.8 9.4 9.8 13.8 5.0 15.3 10.3 7.6 4.4 1.4 1.4 2.8 0.2 0.2 0.2 0.2 0.4 0.3 0.4 0.7 0.7 0.6 1.0 1.4 1.6 2.8 3.9
11.5 23.5 23.5 24.4 20.8 13.3 12.5 6.8 5.8 6.1 4.7 2.5 4.1 2.9 4.0 3.0 10.5 15.2 15.0 14.8 12.0 15.7 9.1 10.6 9.9 6.7 6.1 4.0 3.1 2.1 3.4 2.2 2.2 2.3 2.4 2.6 3.9 3.7 5.4 6.2 7.2 6.7 8.7 11.2
15.7 15.0 15.5 13.1 12.5 10.6 8.9 6.5 4.5 2.6 2.9 2.4 3.6 5.0 6.0 11.3 13.8 10.4 8.7 8.8 8.2 6.6 9.3 11.0 7.1 6.9 5.5 4.5 5.0 5.3 5.6 5.4 5.9 6.1 6.1 7.1 7.3 6.6 8.4 9.4 9.3 7.8 7.9 7.9
7.6 6.9 9.7 8.4 6.7 8.3 6.6 6.5 7.4 4.1 5.5 4.7 9.6 14.1 13.3 12.5 7.2 4.6 5.2 4.5 7.0 10.3 9.3 5.0 4.8 5.0 5.5 6.1 6.2 7.0 7.1 6.5 6.2 6.3 5.8 6.0 6.2 5.6 6.3 6.7 7.1 6.6 5.4 5.4
5.3 9.1 8.8 8.5 7.3 8.7 8.6 7.2 5.6 3.8 4.7 11.3 11.4 7.9 7.2 6.7 6.3 7.0 8.3 12.1 13.3 8.3 7.8 7.6 6.3 6.6 7.6 7.7 7.9 8.1 7.7 6.7 6.3 6.0 5.8 6.0 5.9 4.4 2.9 3.9 5.6 4.4 4.2 3.7

GFSNW_prec_snow_198.txt.gz
Snowfall_Accumulation
0.0 0.0 0.0 0.0 0.0 0.0 0.0 0.0 17.6 0.0 0.0 12.2 10.4 5.8 0.3 0.0 0.2 0.0 1.6 2.4 4.8 7.2 5.2 5.3 6.0 3.0 3.4 0.0 0.0 0.0 0.0 7.7 6.7 1.5 0.0 0.0 0.0 0.1 0.2 9.1 5.8 6.1 14.9 18.6
0.0 0.0 0.0 0.0 0.0 0.0 0.0 5.0 3.9 0.0 0.0 14.6 8.2 1.0 0.1 0.0 0.0 0.0 2.6 2.9 4.7 6.3 8.1 9.4 11.0 3.6 0.0 0.0 0.0 0.1 0.0 6.6 3.4 3.4 0.0 0.0 0.4 0.0 0.0 0.9 3.5 11.9 18.9 16.3
0.0 0.0 0.0 0.0 0.0 0.0 0.0 9.7 30.8 0.0 0.0 2.3 3.2 4.4 3.2 1.7 0.0 0.0 0.5 3.1 5.7 6.3 7.5 6.9 9.3 3.4 0.0 0.0 0.0 0.0 0.0 2.4 4.5 7.8 8.2 4.5 3.1 1.2 0.0 4.3 14.9 11.2 13.4 9.9
0.0 0.0 0.0 0.0 0.0 0.0 0.0 15.5 23.2 0.3 23.5 12.6 4.6 2.2 3.5 1.5 1.8 0.2 1.0 5.5 3.9 5.4 9.6 6.3 5.7 4.6 0.1 0.0 0.0 0.0 0.2 4.1 6.6 3.7 4.9 3.2 6.3 6.2 7.5 6.9 4.3 10.5 10.1 4.8
0.0 0.0 0.0 0.0 0.0 0.0 0.0 45.4 12.5 1.5 3.5 1.2 7.3 6.5 3.9 1.3 1.6 4.8 4.0 2.2 0.7 1.8 4.0 3.7 4.6 3.8 2.6 3.3 0.0 0.0 0.0 3.1 7.8 14.1 6.5 2.6 9.1 9.6 7.0 3.7 3.6 4.3 2.3 4.0
0.0 0.0 0.0 0.0 0.0 0.0 8.2 0.0 0.0 5.0 6.4 3.5 9.6 8.9 4.3 2.3 2.6 0.6 0.5 1.1 2.9 1.8 1.1 0.0 0.0 0.0 0.5 0.0 1.2 0.7 1.1 3.3 4.4 9.3 4.3 2.5 6.3 7.9 4.7 2.4 1.8 1.6 1.6 2.0
0.0 0.0 0.0 0.0 0.0 0.0 0.0 0.0 0.0 15.1 14.2 4.4 1.6 1.7 0.5 1.6 0.9 2.5 0.0 0.0 3.1 0.0 0.0 0.0 0.0 0.0 0.0 0.0 0.0 0.0 0.2 2.6 6.4 8.7 4.7 12.6 8.5 3.5 2.9 2.2 1.5 0.9 1.3 1.7
0.0 0.0 0.0 0.0 0.0 0.0 0.0 0.0 0.0 9.6 11.7 2.4 1.1 0.7 0.5 0.2 0.0 2.0 0.3 0.0 0.0 0.0 0.0 7.8 4.4 0.6 0.3 0.0 0.0 0.0 0.2 3.0 11.7 9.5 4.3 3.5 1.9 1.2 2.0 2.3 2.1 2.2 2.6 1.3
0.0 0.0 0.0 0.0 0.0 0.0 0.0 0.0 0.0 4.8 13.6 2.6 0.0 0.6 0.6 2.7 3.0 1.9 0.0 0.0 0.0 0.0 7.7 9.4 6.8 2.4 1.6 1.1 0.9 0.4 1.0 1.2 11.6 10.5 10.3 5.4 0.7 0.2 0.0 0.0 2.0 2.3 4.8 3.8
0.0 0.0 0.0 0.0 0.0 0.0 0.0 0.0 0.0 0.1 18.3 0.0 0.0 1.3 2.1 1.0 1.9 5.2 0.7 0.7 0.0 0.0 9.1 10.5 5.0 3.1 2.3 3.9 3.1 1.2 3.8 6.1 13.4 10.8 13.8 1.6 0.2 0.7 0.8 5.2 6.9 5.3 3.8 2.9
0.0 0.0 0.0 0.0 0.0 0.0 0.0 0.0 0.0 0.0 14.6 0.1 0.0 0.0 1.0 1.8 2.8 7.9 1.8 7.2 6.8 8.0 12.7 8.7 6.6 3.4 2.1 2.5 0.3 1.9 2.1 7.5 6.1 8.8 13.5 7.6 1.0 2.1 4.7 6.5 5.8 2.7 1.2 0.4
0.0 0.0 0.0 0.0 0.0 0.0 0.0 0.0 0.0 0.0 3.4 0.8 0.0 0.0 0.0 0.0 0.0 2.6 3.8 3.4 1.3 5.3 9.4 8.4 7.1 4.8 4.2 2.1 5.6 0.8 6.1 4.9 7.2 5.2 4.7 3.0 2.6 4.8 4.1 4.3 5.3 2.7 0.8 0.9
0.0 0.0 0.0 0.0 0.0 0.0 0.0 0.0 0.0 0.0 10.7 0.7 0.0 0.0 0.0 0.0 0.0 0.0 3.7 0.0 2.3 4.4 0.3 7.7 6.6 6.7 0.8 4.4 2.7 4.2 3.7 0.0 5.4 4.0 5.6 4.8 3.7 1.0 1.9 3.1 2.5 1.0 1.1 0.7
0.0 0.0 0.0 0.0 0.0 0.0 0.0 0.0 0.0 0.0 3.0 14.1 2.1 0.0 0.0 0.0 0.0 0.0 0.0 0.0 0.0 0.0 0.0 4.9 4.7 5.3 0.1 4.2 5.9 4.4 4.7 5.6 9.5 11.5 7.5 4.3 1.4 2.1 1.8 1.3 0.9 0.3 1.5 1.3
0.0 0.0 0.0 0.0 0.0 0.0 0.0 0.0 0.0 0.0 2.5 11.6 4.0 0.0 0.0 0.0 0.0 0.0 0.0 0.0 0.0 0.5 5.1 7.3 4.8 0.5 1.4 0.2 2.6 2.5 1.3 5.2 13.1 16.1 10.3 9.0 5.0 2.8 1.8 1.8 2.1 1.2 0.5 0.0
0.0 0.0 0.0 0.0 0.0 0.0 0.0 37.9 0.0 0.0 0.0 13.1 8.1 0.0 0.0 0.0 0.0 0.0 0.0 0.0 0.0 0.4 4.2 4.6 0.1 0.0 2.0 9.4 7.2 2.5 1.4 1.4 3.3 7.8 8.7 8.7 5.3 3.5 2.3 1.5 0.7 0.0 0.0 0.0
0.0 0.0 0.0 0.0 0.0 0.0 1.8 10.9 0.0 0.0 0.0 16.2 12.3 2.1 0.0 0.0 0.0 2.2 0.0 1.9 0.9 0.4 2.7 3.0 1.1 0.5 2.9 10.4 8.0 3.8 2.8 3.1 4.0 4.6 5.9 4.5 1.7 1.1 0.5 0.0 0.0 0.0 0.0 0.0
0.0 0.0 0.0 0.0 0.0 0.0 1.1 0.0 0.0 0.0 0.0 3.5 10.8 7.7 4.0 0.0 2.3 7.4 3.3 4.2 3.1 6.2 3.6 3.6 1.1 1.8 1.7 8.0 0.4 0.0 0.4 1.0 2.0 1.6 0.4 1.5 0.6 0.0 0.0 0.0 0.0 0.0 0.0 0.3
0.0 0.0 0.0 0.0 0.0 3.2 0.0 0.0 0.0 0.0 2.6 12.1 4.9 7.1 14.1 0.0 0.7 3.9 8.6 6.6 14.8 0.2 6.3 1.9 3.4 6.4 9.8 4.4 0.6 0.2 0.6 1.2 0.7 0.0 0.2 0.0 0.2 0.0 0.0 0.0 0.0 0.4 2.7 1.8
0.0 0.0 7.6 49.2 3.0 0.0 0.0 0.0 12.9 19.0 7.5 4.2 4.7 1.2 6.1 0.9 5.0 10.1 9.9 8.9 11.6 10.2 3.6 0.4 6.4 6.7 4.5 1.3 0.3 1.0 1.1 0.6 0.0 0.0 0.0 0.0 0.3 0.5 0.3 1.3 1.9 2.8 2.6 1.0
0.0 18.8 25.8 0.0 0.0 0.0 8.2 30.7 21.0 12.3 9.0 1.5 0.9 0.4 9.6 4.5 11.0 7.5 2.9 10.8 9.0 11.8 9.6 8.8 9.4 10.4 12.9 2.9 1.2 0.2 0.0 0.0 0.0 0.0 0.1 0.2 0.5 1.4 3.0 2.0 0.2 0.1 0.8 1.0
0.0 0.0 0.0 0.0 13.3 17.8 24.2 18.4 10.7 4.3 4.0 1.4 1.5 1.9 3.1 10.9 3.0 12.3 12.0 12.3 11.7 9.2 7.2 10.9 10.9 7.9 1.1 0.1 0.2 0.2 0.1 0.0 0.1 0.3 0.4 0.4 1.3 0.6 1.5 1.3 1.4 1.5 1.5 2.0
0.0 10.6 16.2 21.6 26.2 28.3 18.3 12.2 7.9 5.9 5.1 3.3 4.2 5.6 4.5 6.8 7.8 16.9 9.5 10.0 13.8 5.0 15.5 10.5 7.8 4.6 1.4 1.4 2.8 0.2 0.2 0.2 0.2 0.4 0.3 0.4 0.7 0.7 0.6 1.0 1.4 1.6 2.8 3.9
11.5 23.6 23.5 24.4 20.8 13.3 12.5 6.8 5.8 6.1 4.7 2.6 4.2 3.0 4.1 3.1 10.7 15.2 15.2 14.9 12.2 15.9 9.2 10.8 9.9 6.7 6.1 4.0 3.1 2.1 3.4 2.2 2.2 2.3 2.4 2.6 3.9 3.7 5.4 6.2 7.2 6.7 8.7 11.2
15.7 15.1 15.5 13.1 12.5 10.6 8.9 6.5 4.5 2.6 2.9 2.5 3.8 5.1 6.1 11.4 13.9 10.7 8.7 8.9 8.3 6.7 9.4 11.0 7.1 7.0 5.5 4.6 5.0 5.3 5.7 5.5 5.9 6.1 6.1 7.1 7.3 6.6 8.4 9.4 9.3 7.8 7.9 7.9
7.6 6.9 9.7 8.4 6.7 8.3 6.6 6.5 7.4 4.1 5.5 4.8 9.7 14.2 13.5 12.7 7.4 4.8 5.2 4.7 7.1 10.7 9.6 5.4 5.5 5.6 5.7 6.1 6.2 7.0 7.1 6.5 6.2 6.3 5.8 6.0 6.2 5.6 6.3 6.7 7.1 6.6 5.4 5.4
5.4 9.1 8.8 8.5 7.3 8.7 8.6 7.2 5.6 3.8 4.8 11.6 11.5 8.0 7.2 6.7 6.3 7.0 8.7 12.8 14.3 8.9 8.1 7.8 6.3 6.6 7.6 7.7 7.9 8.1 7.7 6.7 6.3 6.0 5.8 6.0 5.9 4.4 2.9 3.9 5.6 4.4 4.2 3.7

GFSNW_prec_snow_201.txt.gz
Snowfall_Accumulation
0.0 0.0 0.0 0.0 0.0 0.0 0.0 0.0 17.6 0.0 0.0 12.2 10.4 5.8 0.3 0.0 0.2 0.0 1.6 2.4 4.8 7.2 5.2 5.3 6.0 3.0 3.4 0.0 0.0 0.0 0.0 7.7 6.7 1.5 0.0 0.0 0.0 0.1 0.2 9.4 6.0 6.5 14.9 18.6
0.0 0.0 0.0 0.0 0.0 0.0 0.0 5.0 3.9 0.0 0.0 14.6 9.6 2.1 0.1 0.0 0.0 0.0 2.6 2.9 4.7 6.3 8.1 9.6 11.0 3.6 0.0 0.0 0.0 0.1 0.0 6.6 3.4 3.4 0.0 0.0 0.4 0.0 0.0 0.9 3.5 11.9 18.9 16.3
0.0 0.0 0.0 0.0 0.0 0.0 0.0 9.7 30.8 0.0 0.0 2.3 3.2 5.6 5.0 3.1 0.0 0.0 0.5 3.1 5.7 6.3 7.6 6.9 9.4 3.5 0.0 0.0 0.0 0.0 0.0 2.4 4.5 7.8 8.2 4.5 3.1 1.2 0.0 4.3 14.9 11.2 13.4 9.9
0.0 0.0 0.0 0.0 0.0 0.0 0.0 15.5 23.2 0.3 25.2 13.5 5.5 2.2 3.5 1.9 2.0 0.2 1.0 5.8 3.9 5.5 9.7 6.4 5.7 4.6 0.2 0.0 0.0 0.0 0.2 4.1 6.6 3.7 4.9 3.2 6.3 6.2 7.5 6.9 4.3 10.5 10.1 4.8
0.0 0.0 0.0 0.0 0.0 0.0 0.0 45.4 12.5 1.5 5.3 1.2 8.9 7.8 4.6 1.6 2.1 5.1 4.3 2.3 0.7 1.8 4.0 3.7 4.6 3.8 2.6 3.3 0.0 0.0 0.0 3.1 7.8 14.1 6.5 2.6 9.1 9.6 7.0 3.7 3.6 4.3 2.3 4.3
0.0 0.0 0.0 0.0 0.0 0.0 8.2 0.0 0.0 5.0 8.1 4.2 10.4 9.6 4.7 2.7 2.6 0.6 0.5 1.1 2.9 1.8 1.1 0.0 0.0 0.0 0.5 0.0 1.2 0.7 1.1 3.3 4.4 9.3 4.3 2.5 6.3 7.9 4.7 2.4 1.8 2.0 1.6 2.3
0.0 0.0 0.0 0.0 0.0 0.0 0.0 0.0 0.0 16.5 15.3 5.0 2.2 1.7 0.5 1.8 0.9 2.5 0.0 0.0 3.1 0.0 0.0 0.0 0.0 0.0 0.0 0.0 0.0 0.0 0.2 2.6 6.4 8.7 4.7 12.7 8.5 3.5 2.9 2.2 1.5 0.9 1.3 1.9
0.0 0.0 0.0 0.0 0.0 0.0 0.0 0.0 0.0 9.6 11.9 2.4 1.1 0.7 0.5 0.2 0.0 2.0 0.3 0.0 0.0 0.0 0.0 7.8 4.4 0.6 0.3 0.0 0.0 0.0 0.2 3.0 11.8 9.6 4.5 3.5 1.9 1.2 2.1 2.3 2.1 2.2 3.6 1.5
0.0 0.0 0.0 0.0 0.0 0.0 0.0 0.0 0.0 4.8 13.6 2.6 0.0 0.6 0.6 2.7 3.0 1.9 0.0 0.0 0.0 0.0 7.7 9.4 6.8 2.4 1.6 1.1 0.9 0.4 1.0 1.2 12.0 10.8 10.6 5.6 0.7 0.2 0.1 0.0 2.0 3.2 5.4 4.8
0.0 0.0 0.0 0.0 0.0 0.0 0.0 0.0 0.0 0.1 18.3 0.0 0.0 1.3 2.1 1.0 1.9 5.2 0.7 0.7 0.0 0.0 9.1 10.5 5.0 3.1 2.3 3.9 3.1 1.2 3.8 6.4 14.1 11.3 14.1 1.7 0.2 0.7 0.8 5.2 6.9 5.3 4.3 4.1
0.0 0.0 0.0 0.0 0.0 0.0 0.0 0.0 0.0 0.0 14.6 0.1 0.0 0.0 1.0 1.8 2.8 7.9 1.8 7.2 6.8 8.0 12.7 8.7 6.6 3.5 2.1 2.5 0.3 1.9 2.1 7.5 6.2 8.9 13.6 7.8 1.2 2.1 4.7 6.5 5.8 3.1 2.5 1.2
0.0 0.0 0.0 0.0 0.0 0.0 0.0 0.0 0.0 0.0 3.4 0.8 0.0 0.0 0.0 0.0 0.0 2.6 3.8 3.4 1.3 5.3 9.4 8.6 7.3 4.9 4.2 2.2 5.6 0.8 6.2 4.9 7.3 5.6 5.0 3.0 2.6 4.8 4.1 4.3 6.3 3.4 1.8 0.9
0.0 0.0 0.0 0.0 0.0 0.0 0.0 0.0 0.0 0.0 10.7 0.7 0.0 0.0 0.0 0.0 0.0 0.0 3.7 0.0 2.3 4.4 0.3 7.8 6.7 6.8 0.8 4.5 2.7 4.3 3.7 0.0 5.4 4.0 5.6 4.8 3.7 1.1 1.9 3.1 3.5 1.0 1.1 0.7
0.0 0.0 0.0 0.0 0.0 0.0 0.0 0.0 0.0 0.0 3.0 14.1 2.1 0.0 0.0 0.0 0.0 0.0 0.0 0.0 0.0 0.0 0.0 5.0 4.8 5.4 0.1 4.4 6.1 4.6 4.7 5.6 9.5 11.5 7.5 4.3 1.4 2.8 2.7 1.3 0.9 0.3 1.5 1.3
0.0 0.0 0.0 0.0 0.0 0.0 0.0 0.0 0.0 0.0 2.5 11.6 4.0 0.0 0.0 0.0 0.0 0.0 0.0 0.0 0.0 0.5 5.1 7.4 4.9 0.5 1.6 0.2 2.8 2.6 1.3 5.2 13.2 16.1 10.3 9.1 5.0 2.8 1.8 2.0 2.1 1.2 0.5 0.0
0.0 0.0 0.0 0.0 0.0 0.0 0.0 37.9 0.0 0.0 0.0 13.1 8.1 0.0 0.0 0.0 0.0 0.0 0.0 0.0 0.0 0.4 4.3 4.6 0.1 0.0 2.4 9.6 7.3 2.5 1.4 1.4 3.3 7.8 8.7 8.7 5.3 3.5 2.3 1.5 0.7 0.0 0.0 0.0
0.0 0.0 0.0 0.0 0.0 0.0 1.8 10.9 0.0 0.0 0.0 16.2 12.3 2.1 0.0 0.0 0.0 2.2 0.0 1.9 0.9 0.4 2.9 3.1 1.1 0.5 3.2 10.6 8.0 3.8 2.8 3.1 4.0 4.6 5.9 4.5 1.7 1.3 0.5 0.0 0.0 0.0 0.0 0.0
0.0 0.0 0.0 0.0 0.0 0.0 1.1 0.0 0.0 0.0 0.0 3.5 10.8 7.7 4.0 0.0 2.4 7.9 3.3 4.3 3.1 6.3 3.7 3.7 1.1 1.9 2.0 8.1 0.4 0.0 0.4 1.0 2.5 1.6 0.4 1.5 0.6 0.0 0.0 0.0 0.0 0.0 0.0 0.3
0.0 0.0 0.0 0.0 0.0 3.2 0.0 0.0 0.0 0.0 2.6 12.1 4.9 7.1 14.3 0.0 0.8 4.1 9.0 7.1 15.2 0.4 6.4 2.0 3.4 6.6 10.0 4.4 0.6 0.2 0.7 1.3 0.8 0.0 0.2 0.0 0.2 0.0 0.0 0.0 0.0 0.4 2.7 1.8
0.0 0.0 7.6 49.2 3.0 0.0 0.0 0.0 12.9 19.0 7.5 4.2 4.7 1.2 6.1 0.9 5.2 10.3 10.1 9.1 11.9 10.7 3.8 0.4 6.6 6.7 4.5 1.3 0.3 1.0 1.1 0.6 0.0 0.0 0.0 0.0 0.3 0.5 0.3 1.3 1.9 2.8 2.6 1.1
0.0 18.8 25.8 0.0 0.0 0.0 8.2 30.7 21.0 12.3 9.0 1.5 0.9 0.4 9.6 4.5 11.1 7.8 3.0 11.0 9.2 12.0 10.0 9.0 9.6 10.4 12.9 2.9 1.2 0.2 0.0 0.0 0.0 0.0 0.1 0.2 0.5 1.4 3.0 2.0 0.2 0.1 0.8 1.0
0.0 0.0 0.0 0.0 13.4 17.8 24.2 18.4 10.7 4.3 4.0 1.4 1.6 1.9 3.2 11.0 3.1 12.5 12.2 12.5 11.9 9.4 7.2 11.1 11.1 8.2 1.1 0.1 0.2 0.2 0.1 0.0 0.1 0.3 0.4 0.4 1.3 0.6 1.5 1.3 1.4 1.5 1.5 2.0
0.0 10.6 16.3 21.6 26.3 28.3 18.3 12.2 7.9 5.9 5.1 3.3 4.3 5.7 4.5 7.0 7.8 17.1 9.7 10.2 14.0 5.2 15.7 10.6 8.1 4.6 1.4 1.4 2.8 0.2 0.2 0.2 0.2 0.4 0.3 0.4 0.7 0.7 0.6 1.0 1.4 1.6 2.8 3.9
11.5 23.6 23.5 24.4 20.9 13.3 12.5 6.8 5.9 6.1 4.7 2.7 4.2 3.0 4.2 3.3 10.9 15.2 15.4 15.2 12.4 16.1 9.3 11.3 10.2 6.7 6.1 4.0 3.1 2.2 3.4 2.3 2.2 2.4 2.4 2.6 3.9 3.7 5.4 6.2 7.2 6.7 8.7 11.2
15.7 15.1 15.6 13.1 12.5 10.6 8.9 6.5 4.5 2.6 3.0 2.6 4.0 5.3 6.1 11.5 14.1 10.9 8.7 9.3 8.6 7.0 10.0 11.7 7.4 7.0 5.9 4.9 5.1 5.4 5.7 5.5 5.9 6.2 6.2 7.1 7.3 6.6 8.4 9.4 9.4 7.8 7.9 7.9
7.6 6.9 9.7 8.4 6.7 8.3 6.6 6.5 7.4 4.1 5.8 5.1 9.9 14.3 13.6 12.9 7.7 5.1 5.5 5.0 7.6 11.4 10.0 5.7 5.6 5.8 5.7 6.1 6.2 7.0 7.1 6.5 6.2 6.3 5.8 6.0 6.2 5.6 6.3 6.7 7.1 6.6 5.4 5.4
5.4 9.1 8.8 8.5 7.3 8.7 8.6 7.2 5.7 3.8 5.0 11.9 11.8 8.2 7.4 6.7 6.6 7.2 9.0 13.4 15.5 9.6 8.5 8.1 6.6 6.6 7.6 7.7 7.9 8.1 7.7 6.7 6.3 6.0 5.8 6.0 5.9 4.4 2.9 3.9 5.6 4.4 4.2 3.7